[[{"header":{"parameterUnit":"m.s-1","parameterCategory":1,"la1":30.2991,"la2":30.254,"lo1":-89.0895,"lo2":-89.0444,"dy":0.0017,"dx":0.0017,"nx":28,"ny":28,"refTime":"2024-12-04T03:00:00:Z","depth":0,"parameterNumber":2,"parameterNumberName":"U-component_of_WINDS"},"data":[0,0,0,0,0,0,0,0,0,0,0,0,0,0,0,0,0,0,0,0,0,0,0,0,0,0,0,0,0,0,0,0,0,0,0,0,0,0,0,0,0,0,0,0,0,0,0,0,0,0,0,0,0,0,0,0,0,0,-1.8276,-1.8277,0,-1.8353,-1.8354,-1.8355,-1.8321,-1.8319,-1.8317,-1.8315,-1.8394,-1.8398,-1.8402,0,0,0,0,0,0,0,0,0,0,0,0,0,-1.8099,-1.8102,-1.8276,-1.8277,-1.8278,-1.8353,-1.8354,-1.8355,-1.8321,-1.8319,-1.8316,-1.8314,-1.8393,-1.8398,-1.8402,0,0,0,0,0,0,0,0,0,0,0,0,0,-1.8176,-1.8103,-1.8276,-1.827,-1.827,-1.8353,-1.8354,-1.8355,-1.8322,-1.8319,-1.8316,-1.8313,-1.8392,-1.8397,-1.8403,-1.8496,0,0,-1.8421,-1.8423,0,0,0,0,0,0,0,0,-1.8172,-1.8182,-1.827,-1.8271,-1.8271,-1.8324,-1.8321,-1.8403,-1.8322,-1.8302,-1.8315,-1.8312,-1.8373,-1.8381,-1.8401,-1.85,-1.8503,-1.8421,-1.8425,-1.8427,-1.8429,0,0,0,0,0,0,0,-1.8166,-1.8179,-1.8307,-1.8271,-1.8272,-1.8263,-1.8271,-1.8336,-1.8353,-1.8304,-1.8301,-1.8311,-1.8373,-1.8396,-1.8403,-1.8504,-1.8421,-1.8426,-1.843,-1.8432,-1.8681,-1.8684,0,0,0,0,0,0,-1.8161,-1.8175,-1.8304,-1.8309,-1.8213,-1.8269,-1.8278,-1.831,-1.8352,-1.8356,-1.8313,-1.8309,-1.8387,-1.8396,-1.8406,-1.8517,-1.8427,-1.8433,-1.8436,-1.8678,-1.8682,-1.8685,0,0,0,0,0,0,-1.8157,-1.8173,-1.8301,-1.8241,-1.8257,-1.8275,-1.8312,-1.8313,-1.8336,-1.8359,-1.8362,-1.8333,-1.8385,-1.8397,-1.8473,-1.8519,-1.8435,-1.8441,-1.8674,-1.8679,-1.8684,-1.8741,0,0,0,0,0,0,-1.8152,-1.8172,-1.8208,-1.8242,-1.826,-1.8368,-1.8315,-1.8317,-1.8346,-1.8341,-1.8379,-1.8382,-1.8384,-1.8465,-1.8479,-1.8526,-1.8445,-1.867,-1.8677,-1.8682,-1.8735,-1.8747,-1.8757,0,0,0,0,0,-1.8146,-1.8221,-1.821,-1.8226,-1.8305,-1.8371,-1.8381,-1.8382,-1.835,-1.8386,-1.84,-1.8381,-1.8511,-1.8473,-1.8489,-1.8538,-1.8668,-1.8675,-1.8682,-1.873,-1.8744,-1.8757,0,0,0,0,0,0,-1.8192,-1.8226,-1.8213,-1.8302,-1.8334,-1.8365,-1.8411,-1.8397,-1.8439,-1.8433,-1.8431,-1.844,-1.8519,-1.8535,-1.8492,-1.8629,-1.8585,-1.8595,-1.8616,-1.863,-1.8641,-1.8636,-1.845,0,0,0,0,0,-1.8212,-1.8263,-1.8289,-1.8364,-1.8381,-1.8393,-1.8422,-1.8419,-1.8452,-1.8466,-1.8486,-1.8519,-1.8567,-1.8599,-1.8645,-1.8736,-1.8744,-1.8777,-1.8788,-1.8797,-1.8807,-1.8856,-1.8871,-1.8708,-1.8708,-1.8708,0,0,-1.8255,-1.8279,-1.8312,-1.8374,-1.8399,-1.8451,-1.8405,-1.8462,-1.8501,-1.8474,-1.8548,-1.8563,-1.86,-1.8684,-1.8722,-1.87,-1.8853,-1.8806,-1.8813,-1.8818,-1.8865,-1.888,-1.8894,-1.8713,-1.8712,-1.8712,0,0,-1.836,-1.8383,-1.8448,-1.8473,-1.8511,-1.8518,-1.8533,-1.8567,-1.8576,-1.8649,-1.863,-1.8675,-1.8759,-1.8785,-1.881,-1.8922,-1.8906,-1.8937,-1.8995,-1.9043,-1.9056,-1.9068,-1.9108,-1.9123,-1.8946,-1.8946,-1.8946,0,-1.8408,-1.8487,-1.8484,-1.8542,-1.857,-1.8547,-1.8613,-1.8638,-1.8688,-1.8708,-1.8682,-1.8785,-1.8808,-1.8898,-1.8925,-1.8946,-1.8963,-1.8934,-1.9054,-1.9066,-1.9077,-1.9115,-1.913,-1.895,-1.8949,-1.8949,-1.8949,0,-1.8544,-1.8599,-1.8647,-1.8696,-1.8729,-1.8791,-1.8797,-1.883,-1.8824,-1.8833,-1.8908,-1.8934,-1.8984,-1.9005,-1.8999,-1.9094,-1.9079,-1.9054,-1.901,-1.9096,-1.9132,-1.9147,-1.8955,-1.8954,-1.8953,-1.8952,0,0,-1.8683,-1.8728,-1.8746,-1.8767,-1.8806,-1.8847,-1.8907,-1.8956,-1.8985,-1.902,-1.907,-1.914,-1.9117,-1.9145,-1.9141,-1.9183,-1.9271,-1.9153,-1.9154,-1.9175,-1.9376,-1.9396,-1.9413,-1.9259,-1.9262,-1.9264,-1.9373,0,-1.8791,-1.8897,-1.8895,-1.8994,-1.9044,-1.9021,-1.9073,-1.9102,-1.9112,-1.9156,-1.9166,-1.9216,-1.9181,-1.9198,-1.9238,-1.9252,-1.9311,-1.9243,-1.9307,-1.9309,-1.93,-1.9432,-1.9453,-1.9555,-1.9387,-1.939,-1.9391,0,-1.8933,-1.8971,-1.9075,-1.9105,-1.9125,-1.9173,-1.9217,-1.9258,-1.929,-1.9294,-1.9324,-1.9314,-1.9374,-1.9326,-1.9409,-1.9363,-1.9388,-1.9399,-1.9402,-1.941,-1.9357,-1.9444,-1.9587,-1.9603,-1.9414,-1.9412,-1.941,0,-1.9024,-1.9102,-1.9174,-1.9193,-1.9229,-1.9263,-1.928,-1.9309,-1.9338,-1.9375,-1.9394,-1.9439,-1.9463,-1.9498,-1.9499,-1.9464,-1.9583,-1.9536,-1.9589,-1.9589,-1.9616,-1.9615,-1.9768,-1.963,-1.963,-1.963,-1.963,0,-1.9146,-1.9211,-1.9215,-1.926,-1.9331,-1.9327,-1.9397,-1.941,-1.9436,-1.9482,-1.9465,-1.9508,-1.9507,-1.9551,-1.9552,-1.9621,-1.9632,-1.9637,-1.9637,-1.964,-1.9639,-1.9658,-1.9651,-1.9634,-1.9633,-1.9632,-1.9632,0,-1.9262,-1.9268,-1.9344,-1.9372,-1.938,-1.9431,-1.9455,-1.9497,-1.9504,-1.9562,-1.9576,-1.9587,-1.9638,-1.9642,-1.9701,-1.9702,-1.9785,-1.9777,-1.9775,-1.9774,-1.9827,-1.9823,-1.9998,-2.0021,-1.9868,-1.9869,-1.987,0,-1.934,-1.9389,-1.9421,-1.9451,-1.947,-1.9517,-1.9547,-1.9544,-1.9575,-1.9614,-1.9651,-1.9699,-1.9739,-1.9821,-1.9834,-1.9879,-1.9872,-1.993,-1.9879,-1.9879,-1.9874,-1.9872,-1.9876,-1.9941,-1.9943,-1.9944,-1.9945,0,-1.9479,-1.9479,-1.9522,-1.9566,-1.9601,-1.9635,-1.9667,-1.9692,-1.9693,-1.9728,-1.978,-1.981,-1.9869,-1.9918,-1.9961,-1.9978,-1.9962,-1.9961,-1.9976,-1.998,-1.9977,-1.998,-1.9804,-1.9957,-1.9956,-1.9955,-1.9955,-1.9954,-1.9579,-1.9621,-1.9651,-1.9698,-1.9722,-1.9752,-1.9792,-1.9804,-1.9847,-1.9895,-1.989,-1.9947,-1.9976,-2.0032,-2.0052,-2.0096,-2.0076,-2.0098,-2.0103,-2.0109,-2.0115,-1.9968,-2.0104,-2.0103,-2.0103,-2.0103,-2.0102,0,-1.9718,-1.9735,-1.9779,-1.9824,-1.9861,-1.9841,-1.9875,-1.9908,-1.9958,-1.9986,-2.0025,-2.0083,-2.013,-2.0146,-2.0191,-2.0223,-2.0217,-2.0235,-2.0234,-2.0238,-2.0129,-2.0113,-2.024,-2.0239,-2.0239,-2.0239,-2.0239,-2.0239,-1.9795,-1.9865,-1.9868,-1.9949,-1.9965,-2.0021,-2.0042,-2.0069,-2.0091,-2.0157,-2.0196,-2.0206,-2.0229,-2.0275,-2.0317,-2.032,-2.0338,-2.036,-2.036,-2.0259,-2.0245,-2.0232,-2.0216,-2.0363,-2.0363,-2.0465,-2.0466,-2.0466]},{"header":{"parameterUnit":"m.s-1","parameterCategory":1,"la1":30.2991,"la2":30.254,"lo1":-89.0895,"lo2":-89.0444,"dy":0.0017,"dx":0.0017,"nx":28,"ny":28,"refTime":"2024-12-04T03:00:00:Z","depth":0,"parameterNumber":3,"parameterNumberName":"V-component_of_WINDS"},"data":[0,0,0,0,0,0,0,0,0,0,0,0,0,0,0,0,0,0,0,0,0,0,0,0,0,0,0,0,0,0,0,0,0,0,0,0,0,0,0,0,0,0,0,0,0,0,0,0,0,0,0,0,0,0,0,0,0,0,-8.0171,-8.0172,0,-8.0297,-8.0298,-8.03,-8.0212,-8.0208,-8.0204,-8.02,-8.0323,-8.033,-8.0337,0,0,0,0,0,0,0,0,0,0,0,0,0,-7.9848,-7.9854,-8.0171,-8.0173,-8.0174,-8.0297,-8.0298,-8.03,-8.0213,-8.0208,-8.0203,-8.0199,-8.0321,-8.0329,-8.0337,0,0,0,0,0,0,0,0,0,0,0,0,0,-7.9982,-7.9857,-8.0171,-8.0145,-8.0144,-8.0296,-8.0299,-8.0301,-8.0214,-8.0208,-8.0202,-8.0196,-8.0318,-8.0328,-8.0338,-8.052,0,0,-8.037,-8.0374,0,0,0,0,0,0,0,0,-7.9975,-7.9994,-8.0148,-8.0147,-8.0147,-8.0233,-8.0229,-8.0374,-8.0215,-8.0187,-8.02,-8.0194,-8.0297,-8.0309,-8.0345,-8.0526,-8.0531,-8.0371,-8.0377,-8.0382,-8.0385,0,0,0,0,0,0,0,-7.9966,-7.9988,-8.0221,-8.015,-8.0149,-8.0126,-8.0138,-8.0256,-8.0273,-8.0189,-8.0183,-8.02,-8.0296,-8.0336,-8.0348,-8.0533,-8.0371,-8.038,-8.0386,-8.039,-8.0867,-8.0873,0,0,0,0,0,0,-7.996,-7.9981,-8.0217,-8.0224,-8.0045,-8.0136,-8.015,-8.0211,-8.0272,-8.0276,-8.0205,-8.0195,-8.0321,-8.0336,-8.0352,-8.0568,-8.0382,-8.0391,-8.0397,-8.0861,-8.0869,-8.0876,0,0,0,0,0,0,-7.9953,-7.9982,-8.0211,-8.0101,-8.0129,-8.0148,-8.0217,-8.0217,-8.0256,-8.0284,-8.0286,-8.0243,-8.0317,-8.0337,-8.0479,-8.0571,-8.0396,-8.0405,-8.0853,-8.0863,-8.0872,-8.1003,0,0,0,0,0,0,-7.9944,-7.998,-8.0051,-8.0104,-8.0135,-8.034,-8.0223,-8.0223,-8.0275,-8.0264,-8.032,-8.0323,-8.0314,-8.0464,-8.0489,-8.0582,-8.0413,-8.0845,-8.0858,-8.0869,-8.099,-8.1016,-8.1037,0,0,0,0,0,-7.9933,-8.0081,-8.0055,-8.0084,-8.0225,-8.0345,-8.0363,-8.035,-8.0283,-8.0353,-8.0371,-8.0321,-8.0557,-8.0479,-8.0507,-8.0604,-8.0839,-8.0854,-8.0868,-8.098,-8.1011,-8.1037,0,0,0,0,0,0,-8.0036,-8.0088,-8.0059,-8.0229,-8.0284,-8.033,-8.0418,-8.0384,-8.0457,-8.0443,-8.0422,-8.0436,-8.0585,-8.0608,-8.0521,-8.0783,-8.0687,-8.0708,-8.0762,-8.0792,-8.0815,-8.0806,-8.0422,0,0,0,0,0,-8.0079,-8.0175,-8.0213,-8.036,-8.0389,-8.0399,-8.0451,-8.0437,-8.0492,-8.0514,-8.0542,-8.0595,-8.068,-8.0737,-8.0818,-8.0993,-8.1003,-8.1073,-8.1097,-8.1116,-8.1134,-8.1228,-8.1259,-8.0923,-8.0923,-8.0923,0,0,-8.0168,-8.0208,-8.0269,-8.0382,-8.0422,-8.052,-8.0419,-8.0527,-8.0598,-8.0529,-8.0666,-8.0688,-8.0746,-8.0905,-8.0977,-8.093,-8.1229,-8.1135,-8.115,-8.1157,-8.1246,-8.1278,-8.1306,-8.0933,-8.0931,-8.093,0,0,-8.038,-8.0421,-8.0547,-8.059,-8.0653,-8.0659,-8.069,-8.0742,-8.0755,-8.0892,-8.0842,-8.0925,-8.1074,-8.1117,-8.1158,-8.1387,-8.1343,-8.1413,-8.1536,-8.1627,-8.1654,-8.1677,-8.1758,-8.1787,-8.1431,-8.1431,-8.1431,0,-8.0482,-8.0629,-8.0615,-8.0727,-8.0777,-8.0722,-8.0848,-8.089,-8.0976,-8.101,-8.0957,-8.1142,-8.1177,-8.1345,-8.1401,-8.1437,-8.1469,-8.1407,-8.1652,-8.1675,-8.1696,-8.1773,-8.1804,-8.1439,-8.1438,-8.1437,-8.1437,0,-8.0751,-8.0854,-8.0948,-8.1035,-8.1095,-8.1214,-8.1216,-8.1278,-8.1259,-8.127,-8.1409,-8.1449,-8.1536,-8.1575,-8.1556,-8.1741,-8.171,-8.1655,-8.1558,-8.1737,-8.1808,-8.1838,-8.1451,-8.1448,-8.1445,-8.1443,0,0,-8.1032,-8.111,-8.1145,-8.1183,-8.1249,-8.1327,-8.1442,-8.153,-8.1583,-8.1644,-8.1739,-8.1866,-8.1815,-8.1862,-8.1847,-8.1927,-8.2105,-8.1862,-8.1863,-8.1905,-8.231,-8.2351,-8.2386,-8.2077,-8.2082,-8.2087,-8.2305,0,-8.1247,-8.1451,-8.1442,-8.1631,-8.1725,-8.1673,-8.1773,-8.1823,-8.1836,-8.1916,-8.1928,-8.2019,-8.1945,-8.1973,-8.2051,-8.2067,-8.2186,-8.2051,-8.2163,-8.2167,-8.2151,-8.2423,-8.2467,-8.2671,-8.2333,-8.2337,-8.2341,0,-8.1526,-8.1599,-8.1799,-8.185,-8.1889,-8.198,-8.2059,-8.2136,-8.2191,-8.2195,-8.2248,-8.222,-8.2334,-8.2234,-8.239,-8.2299,-8.2344,-8.2359,-8.2366,-8.2376,-8.2265,-8.244,-8.2736,-8.2767,-8.2385,-8.2381,-8.2378,0,-8.1711,-8.1858,-8.1997,-8.2031,-8.2095,-8.216,-8.2189,-8.2238,-8.2291,-8.2359,-8.2393,-8.2473,-8.2517,-8.2578,-8.2572,-8.25,-8.273,-8.263,-8.2734,-8.2735,-8.2785,-8.2782,-8.3093,-8.2815,-8.2814,-8.2814,-8.2813,0,-8.1953,-8.2077,-8.2081,-8.2166,-8.2302,-8.2289,-8.2424,-8.2446,-8.249,-8.2577,-8.2535,-8.2617,-8.2604,-8.2685,-8.268,-8.281,-8.2829,-8.2834,-8.2831,-8.2838,-8.2838,-8.2867,-8.2853,-8.2822,-8.282,-8.2818,-8.2817,0,-8.2182,-8.219,-8.2337,-8.2386,-8.2401,-8.25,-8.254,-8.262,-8.2629,-8.2739,-8.2764,-8.2779,-8.2872,-8.2872,-8.2978,-8.2974,-8.3133,-8.3114,-8.3115,-8.3111,-8.3216,-8.3206,-8.3556,-8.3601,-8.3294,-8.3297,-8.33,0,-8.2336,-8.2431,-8.249,-8.2546,-8.258,-8.2671,-8.2726,-8.2715,-8.2773,-8.2843,-8.2914,-8.3004,-8.3075,-8.3226,-8.3245,-8.3325,-8.3307,-8.3425,-8.3319,-8.3323,-8.3309,-8.3303,-8.3312,-8.3445,-8.3449,-8.3451,-8.3454,0,-8.2608,-8.2607,-8.2689,-8.2772,-8.2839,-8.2903,-8.2962,-8.301,-8.3006,-8.3073,-8.3169,-8.3225,-8.3334,-8.3423,-8.3501,-8.3528,-8.349,-8.3487,-8.3515,-8.3523,-8.352,-8.3523,-8.3171,-8.3479,-8.3476,-8.3474,-8.3473,-8.3472,-8.2804,-8.2886,-8.2941,-8.3032,-8.3076,-8.3133,-8.321,-8.323,-8.3311,-8.34,-8.3388,-8.3496,-8.3546,-8.3647,-8.3681,-8.3763,-8.3721,-8.3763,-8.3773,-8.3783,-8.3795,-8.3507,-8.3777,-8.3776,-8.3775,-8.3775,-8.3774,0,-8.3074,-8.3107,-8.3191,-8.3277,-8.3349,-8.3309,-8.3372,-8.3434,-8.353,-8.3582,-8.3653,-8.3763,-8.385,-8.3875,-8.3958,-8.4018,-8.4003,-8.404,-8.4036,-8.4042,-8.3827,-8.3794,-8.4051,-8.4051,-8.4051,-8.4051,-8.4051,-8.4051,-8.3223,-8.3358,-8.3364,-8.352,-8.3551,-8.3658,-8.3698,-8.3749,-8.379,-8.3915,-8.3988,-8.4005,-8.4045,-8.413,-8.4207,-8.4212,-8.4244,-8.4289,-8.4287,-8.4085,-8.4057,-8.4031,-8.4,-8.4296,-8.4296,-8.4495,-8.4497,-8.4498]}]]